[[{"header":{"parameterUnit":"m.s-1","parameterCategory":1,"la1":30.2991,"la2":30.254,"lo1":-89.0895,"lo2":-89.0444,"dy":0.0017,"dx":0.0017,"nx":28,"ny":28,"refTime":"2025-01-20T09:00:00:Z","depth":0,"parameterNumber":2,"parameterNumberName":"U-component_of_WINDS"},"data":[0,0,0,0,0,0,0,0,0,0,0,0,0,0,0,0,0,0,0,0,0,0,0,0,0,0,0,0,0,0,0,0,0,0,0,0,0,0,0,0,0,0,0,0,0,0,0,0,0,0,0,0,0,0,0,0,0,0,-2.5559,-2.5559,0,-2.559,-2.559,-2.5591,-2.5534,-2.5532,-2.553,-2.5528,-2.5561,-2.5563,-2.5566,0,0,0,0,0,0,0,0,0,0,0,0,0,-2.545,-2.5453,-2.5559,-2.5559,-2.556,-2.559,-2.559,-2.5591,-2.5534,-2.5532,-2.5529,-2.5527,-2.556,-2.5563,-2.5566,0,0,0,0,0,0,0,0,0,0,0,0,0,-2.5491,-2.5453,-2.5559,-2.5535,-2.5533,-2.559,-2.559,-2.5591,-2.5534,-2.5532,-2.5529,-2.5526,-2.5559,-2.5562,-2.5566,-2.5648,0,0,-2.5579,-2.558,0,0,0,0,0,0,0,0,-2.5489,-2.5495,-2.5538,-2.5537,-2.5535,-2.5555,-2.5564,-2.561,-2.5535,-2.5534,-2.5528,-2.5525,-2.5561,-2.5565,-2.5577,-2.565,-2.5651,-2.5579,-2.5581,-2.5583,-2.5584,0,0,0,0,0,0,0,-2.5486,-2.5494,-2.5571,-2.5539,-2.5537,-2.5523,-2.5525,-2.5572,-2.5563,-2.5534,-2.553,-2.5534,-2.556,-2.5573,-2.5577,-2.5652,-2.5579,-2.5582,-2.5585,-2.5586,-2.5793,-2.5796,0,0,0,0,0,0,-2.5486,-2.5492,-2.557,-2.5572,-2.5504,-2.5527,-2.553,-2.5551,-2.5563,-2.5561,-2.5537,-2.5531,-2.5568,-2.5573,-2.5578,-2.5675,-2.5583,-2.5587,-2.5589,-2.579,-2.5793,-2.5797,0,0,0,0,0,0,-2.5484,-2.5494,-2.5569,-2.5531,-2.5539,-2.5532,-2.5556,-2.5554,-2.5567,-2.5565,-2.5563,-2.5552,-2.5566,-2.5572,-2.5631,-2.5675,-2.5588,-2.5592,-2.5786,-2.5791,-2.5795,-2.5869,0,0,0,0,0,0,-2.5481,-2.5493,-2.5525,-2.5532,-2.5542,-2.5622,-2.5559,-2.5556,-2.5574,-2.5567,-2.5579,-2.5578,-2.5564,-2.5625,-2.5635,-2.5679,-2.5595,-2.5782,-2.5788,-2.5794,-2.5863,-2.5876,-2.5887,0,0,0,0,0,-2.5478,-2.5544,-2.5526,-2.5536,-2.558,-2.5625,-2.563,-2.5613,-2.5578,-2.5609,-2.5607,-2.5577,-2.5668,-2.5632,-2.5642,-2.5688,-2.5779,-2.5786,-2.5793,-2.5857,-2.5873,-2.5886,0,0,0,0,0,0,-2.5543,-2.5545,-2.5525,-2.5596,-2.5611,-2.5615,-2.5654,-2.563,-2.5655,-2.5648,-2.5625,-2.5628,-2.5691,-2.5695,-2.5654,-2.5768,-2.5718,-2.5727,-2.5763,-2.5778,-2.579,-2.5788,-2.5598,0,0,0,0,0,-2.5565,-2.5601,-2.5601,-2.5664,-2.5672,-2.5662,-2.568,-2.5665,-2.5679,-2.5685,-2.5688,-2.5703,-2.5735,-2.5756,-2.5785,-2.5862,-2.5864,-2.5899,-2.5911,-2.5921,-2.5929,-2.597,-2.5986,-2.582,-2.582,-2.582,0,0,-2.5613,-2.5618,-2.5642,-2.5677,-2.5686,-2.5724,-2.5667,-2.5709,-2.5737,-2.5692,-2.5748,-2.575,-2.5765,-2.5833,-2.5863,-2.5838,-2.5975,-2.5929,-2.5937,-2.5941,-2.5979,-2.5995,-2.6009,-2.5824,-2.5824,-2.5823,0,0,-2.5718,-2.5726,-2.5779,-2.5789,-2.5804,-2.5797,-2.5809,-2.5817,-2.5817,-2.5872,-2.5839,-2.5871,-2.5926,-2.5939,-2.5952,-2.6061,-2.6035,-2.6071,-2.6134,-2.6175,-2.6188,-2.6199,-2.6239,-2.6253,-2.6079,-2.6079,-2.608,0,-2.5776,-2.5831,-2.5809,-2.5854,-2.587,-2.583,-2.5884,-2.5895,-2.5919,-2.5931,-2.5902,-2.597,-2.5978,-2.6048,-2.6075,-2.6086,-2.6101,-2.607,-2.6187,-2.6199,-2.6209,-2.6247,-2.6262,-2.6084,-2.6083,-2.6083,-2.6082,0,-2.5901,-2.5939,-2.598,-2.6004,-2.6025,-2.6074,-2.606,-2.6083,-2.6066,-2.6061,-2.6118,-2.6125,-2.6155,-2.617,-2.6154,-2.6238,-2.6222,-2.6191,-2.6141,-2.623,-2.6265,-2.6279,-2.609,-2.6089,-2.6087,-2.6086,0,0,-2.605,-2.606,-2.6076,-2.6086,-2.6099,-2.6128,-2.6175,-2.6204,-2.6225,-2.6242,-2.6281,-2.6328,-2.6298,-2.6314,-2.6298,-2.6333,-2.642,-2.6297,-2.6297,-2.6321,-2.6513,-2.6538,-2.6555,-2.6401,-2.6404,-2.6406,-2.6512,0,-2.6156,-2.6237,-2.6218,-2.6298,-2.6333,-2.6295,-2.6336,-2.6348,-2.6345,-2.6374,-2.637,-2.6404,-2.6363,-2.6372,-2.6404,-2.6402,-2.6458,-2.6394,-2.6438,-2.644,-2.6437,-2.6573,-2.6599,-2.6699,-2.6526,-2.6528,-2.653,0,-2.629,-2.6312,-2.6396,-2.6402,-2.6416,-2.6453,-2.6478,-2.6507,-2.6519,-2.6514,-2.6531,-2.6508,-2.6554,-2.6502,-2.6566,-2.6523,-2.6539,-2.6541,-2.6544,-2.6549,-2.6491,-2.6582,-2.6731,-2.6746,-2.6551,-2.6549,-2.6548,0,-2.6392,-2.6443,-2.6499,-2.6509,-2.6517,-2.6544,-2.6549,-2.6559,-2.6577,-2.6598,-2.661,-2.6636,-2.6651,-2.6672,-2.6657,-2.6621,-2.6723,-2.667,-2.6721,-2.6721,-2.6746,-2.6745,-2.69,-2.6754,-2.6754,-2.6754,-2.6753,0,-2.6513,-2.6566,-2.6545,-2.658,-2.6637,-2.6615,-2.6673,-2.6673,-2.6682,-2.6716,-2.6684,-2.6716,-2.6694,-2.6725,-2.6713,-2.6768,-2.6774,-2.6772,-2.6768,-2.6776,-2.6776,-2.6787,-2.678,-2.6758,-2.6757,-2.6756,-2.6755,0,-2.6638,-2.6626,-2.6685,-2.6688,-2.6689,-2.6732,-2.6734,-2.6767,-2.676,-2.6804,-2.6813,-2.6803,-2.6837,-2.6824,-2.686,-2.6852,-2.6922,-2.6909,-2.6918,-2.6916,-2.6967,-2.6963,-2.7137,-2.7158,-2.6998,-2.6999,-2.7,0,-2.6717,-2.6756,-2.6763,-2.6783,-2.679,-2.6824,-2.6842,-2.6821,-2.6841,-2.6858,-2.6889,-2.692,-2.6944,-2.7001,-2.6997,-2.7025,-2.7013,-2.7071,-2.7017,-2.7023,-2.7015,-2.7013,-2.7017,-2.7083,-2.7085,-2.7086,-2.7088,0,-2.6858,-2.6849,-2.6877,-2.6903,-2.6925,-2.6944,-2.6961,-2.6979,-2.6959,-2.6983,-2.7018,-2.7037,-2.7074,-2.7105,-2.713,-2.7134,-2.7108,-2.7104,-2.7118,-2.7127,-2.7131,-2.713,-2.695,-2.7101,-2.71,-2.7099,-2.7098,-2.7097,-2.6963,-2.6996,-2.7006,-2.7038,-2.7047,-2.7063,-2.7094,-2.709,-2.7119,-2.7147,-2.7133,-2.7173,-2.7184,-2.7214,-2.7222,-2.7253,-2.723,-2.7249,-2.7254,-2.726,-2.7267,-2.7124,-2.7257,-2.7257,-2.7256,-2.7256,-2.7256,0,-2.7103,-2.7107,-2.7136,-2.716,-2.7185,-2.7157,-2.7173,-2.7196,-2.7232,-2.7243,-2.7268,-2.7307,-2.7337,-2.7335,-2.7363,-2.7389,-2.7377,-2.7397,-2.7395,-2.7397,-2.7286,-2.7272,-2.7406,-2.7406,-2.7405,-2.7405,-2.7405,-2.7405,-2.7179,-2.7234,-2.7227,-2.7286,-2.729,-2.7329,-2.7341,-2.7355,-2.7365,-2.741,-2.7435,-2.7433,-2.744,-2.7467,-2.7494,-2.7492,-2.7504,-2.7529,-2.7523,-2.742,-2.7405,-2.7391,-2.7378,-2.7531,-2.7532,-2.7632,-2.7633,-2.7634]},{"header":{"parameterUnit":"m.s-1","parameterCategory":1,"la1":30.2991,"la2":30.254,"lo1":-89.0895,"lo2":-89.0444,"dy":0.0017,"dx":0.0017,"nx":28,"ny":28,"refTime":"2025-01-20T09:00:00:Z","depth":0,"parameterNumber":3,"parameterNumberName":"V-component_of_WINDS"},"data":[0,0,0,0,0,0,0,0,0,0,0,0,0,0,0,0,0,0,0,0,0,0,0,0,0,0,0,0,0,0,0,0,0,0,0,0,0,0,0,0,0,0,0,0,0,0,0,0,0,0,0,0,0,0,0,0,0,0,-6.8897,-6.8898,0,-6.8972,-6.8973,-6.8974,-6.8907,-6.8904,-6.8901,-6.8899,-6.8971,-6.8975,-6.8979,0,0,0,0,0,0,0,0,0,0,0,0,0,-6.8691,-6.8696,-6.8897,-6.8898,-6.8899,-6.8972,-6.8973,-6.8974,-6.8907,-6.8904,-6.89,-6.8897,-6.8969,-6.8974,-6.898,0,0,0,0,0,0,0,0,0,0,0,0,0,-6.8775,-6.8697,-6.8897,-6.8875,-6.8873,-6.8972,-6.8973,-6.8974,-6.8908,-6.8904,-6.89,-6.8896,-6.8967,-6.8974,-6.8981,-6.9104,0,0,-6.9001,-6.9004,0,0,0,0,0,0,0,0,-6.877,-6.8783,-6.8877,-6.8876,-6.8875,-6.8926,-6.8927,-6.9017,-6.8909,-6.8895,-6.8899,-6.8894,-6.8959,-6.8966,-6.8989,-6.9107,-6.911,-6.9002,-6.9006,-6.9009,-6.901,0,0,0,0,0,0,0,-6.8765,-6.8779,-6.8927,-6.8878,-6.8877,-6.8859,-6.8867,-6.8944,-6.8948,-6.8895,-6.8891,-6.8901,-6.8957,-6.8983,-6.899,-6.9111,-6.9001,-6.9007,-6.9011,-6.9014,-6.9333,-6.9337,0,0,0,0,0,0,-6.8762,-6.8775,-6.8924,-6.8929,-6.8812,-6.8866,-6.8874,-6.8914,-6.8948,-6.8949,-6.8904,-6.8897,-6.8973,-6.8982,-6.8992,-6.9139,-6.9008,-6.9015,-6.9019,-6.9329,-6.9334,-6.9339,0,0,0,0,0,0,-6.8758,-6.8776,-6.8921,-6.8851,-6.8868,-6.8874,-6.8919,-6.8917,-6.8942,-6.8954,-6.8954,-6.8929,-6.897,-6.8983,-6.9077,-6.914,-6.9018,-6.9024,-6.9324,-6.933,-6.9337,-6.9432,0,0,0,0,0,0,-6.8752,-6.8775,-6.8823,-6.8852,-6.8872,-6.9006,-6.8923,-6.8922,-6.8955,-6.8946,-6.8978,-6.8979,-6.8968,-6.9067,-6.9083,-6.9147,-6.9029,-6.9318,-6.9327,-6.9335,-6.9423,-6.9441,-6.9457,0,0,0,0,0,-6.8745,-6.8846,-6.8826,-6.8844,-6.8932,-6.901,-6.9021,-6.9008,-6.896,-6.9008,-6.9015,-6.8978,-6.913,-6.9077,-6.9095,-6.9162,-6.9314,-6.9324,-6.9334,-6.9416,-6.9438,-6.9456,0,0,0,0,0,0,-6.8822,-6.8849,-6.8827,-6.8941,-6.8974,-6.8999,-6.9058,-6.9031,-6.9077,-6.9068,-6.9047,-6.9055,-6.9154,-6.9167,-6.9107,-6.9282,-6.9214,-6.9228,-6.9271,-6.9291,-6.9308,-6.9303,-6.9035,0,0,0,0,0,-6.8853,-6.8915,-6.8935,-6.9033,-6.9051,-6.9052,-6.9085,-6.9072,-6.9105,-6.9118,-6.9132,-6.9164,-6.9219,-6.9256,-6.9307,-6.9425,-6.943,-6.9479,-6.9496,-6.9509,-6.9522,-6.9585,-6.9607,-6.9372,-6.9372,-6.9372,0,0,-6.8916,-6.8938,-6.8979,-6.9049,-6.9073,-6.9137,-6.9064,-6.9135,-6.9181,-6.9128,-6.9218,-6.923,-6.9264,-6.937,-6.9418,-6.9384,-6.9588,-6.9522,-6.9533,-6.9538,-6.9597,-6.9619,-6.9639,-6.9379,-6.9378,-6.9377,0,0,-6.9063,-6.9087,-6.9172,-6.9198,-6.9236,-6.9236,-6.9256,-6.9285,-6.9291,-6.9382,-6.9343,-6.9397,-6.9492,-6.9518,-6.9544,-6.9702,-6.9669,-6.9719,-6.9806,-6.9867,-6.9886,-6.9902,-6.9958,-6.9978,-6.9731,-6.9731,-6.9731,0,-6.9137,-6.9233,-6.9218,-6.9292,-6.9324,-6.928,-6.9365,-6.939,-6.9442,-6.9464,-6.9426,-6.9545,-6.9564,-6.9676,-6.9715,-6.9737,-6.9759,-6.9715,-6.9884,-6.9901,-6.9915,-6.9969,-6.999,-6.9737,-6.9736,-6.9736,-6.9735,0,-6.9321,-6.9389,-6.9452,-6.9506,-6.9544,-6.9623,-6.9619,-6.9659,-6.9642,-6.9646,-6.9738,-6.976,-6.9815,-6.984,-6.9824,-6.995,-6.9928,-6.9888,-6.9819,-6.9944,-6.9994,-7.0014,-6.9745,-6.9743,-6.9741,-6.974,0,0,-6.952,-6.9565,-6.9588,-6.9612,-6.965,-6.9701,-6.9777,-6.9833,-6.9868,-6.9905,-6.9968,-7.0049,-7.0012,-7.0041,-7.0027,-7.0081,-7.0205,-7.0034,-7.0034,-7.0065,-7.0344,-7.0375,-7.0399,-7.0183,-7.0187,-7.019,-7.0341,0,-6.967,-6.9805,-6.9793,-6.992,-6.9981,-6.9941,-7.0007,-7.0037,-7.0042,-7.0093,-7.0098,-7.0157,-7.0103,-7.012,-7.0172,-7.0179,-7.026,-7.0168,-7.024,-7.0243,-7.0234,-7.0425,-7.0457,-7.0599,-7.036,-7.0364,-7.0366,0,-6.9862,-6.9908,-7.0042,-7.0071,-7.0096,-7.0157,-7.0206,-7.0256,-7.0289,-7.0289,-7.0322,-7.0298,-7.0373,-7.0303,-7.0406,-7.0343,-7.0372,-7.0379,-7.0384,-7.0391,-7.0313,-7.0436,-7.0644,-7.0666,-7.0397,-7.0394,-7.0392,0,-6.9995,-7.0089,-7.0181,-7.0203,-7.0239,-7.0282,-7.0299,-7.0328,-7.0362,-7.0404,-7.0426,-7.0476,-7.0504,-7.0542,-7.0533,-7.0482,-7.0638,-7.0566,-7.0639,-7.0639,-7.0674,-7.0672,-7.0889,-7.0692,-7.0692,-7.0691,-7.0691,0,-7.0163,-7.0246,-7.0241,-7.0298,-7.039,-7.0375,-7.0466,-7.0477,-7.0503,-7.056,-7.0526,-7.058,-7.0564,-7.0617,-7.0609,-7.0696,-7.0708,-7.0709,-7.0706,-7.0713,-7.0713,-7.0731,-7.0721,-7.0697,-7.0696,-7.0695,-7.0694,0,-7.0326,-7.0327,-7.0424,-7.0451,-7.046,-7.0526,-7.0548,-7.0601,-7.0603,-7.0676,-7.0692,-7.0695,-7.0755,-7.075,-7.0817,-7.0812,-7.0918,-7.0904,-7.0908,-7.0905,-7.0978,-7.0971,-7.1215,-7.1247,-7.1029,-7.1031,-7.1033,0,-7.0434,-7.0498,-7.0532,-7.0568,-7.0589,-7.0648,-7.0683,-7.067,-7.0707,-7.0749,-7.0797,-7.0854,-7.09,-7.0997,-7.1005,-7.1056,-7.1042,-7.1124,-7.1049,-7.1054,-7.1043,-7.104,-7.1046,-7.1139,-7.1141,-7.1143,-7.1145,0,-7.0626,-7.0623,-7.0675,-7.0728,-7.0771,-7.0812,-7.0848,-7.088,-7.087,-7.0914,-7.0976,-7.1011,-7.108,-7.1138,-7.1186,-7.1201,-7.1172,-7.1168,-7.1188,-7.1195,-7.1195,-7.1196,-7.0949,-7.1163,-7.1161,-7.116,-7.1159,-7.1158,-7.0765,-7.0819,-7.0852,-7.0911,-7.0938,-7.0973,-7.1024,-7.1034,-7.1086,-7.1142,-7.1131,-7.1201,-7.123,-7.1292,-7.1313,-7.1366,-7.1336,-7.1364,-7.1371,-7.1379,-7.1387,-7.1187,-7.1374,-7.1374,-7.1373,-7.1373,-7.1373,0,-7.0955,-7.0974,-7.1029,-7.1082,-7.1129,-7.1098,-7.1137,-7.1177,-7.124,-7.1271,-7.1317,-7.1388,-7.1443,-7.1455,-7.1507,-7.1548,-7.1535,-7.1562,-7.1559,-7.1563,-7.1411,-7.1389,-7.1571,-7.1571,-7.1571,-7.1571,-7.1571,-7.1571,-7.1059,-7.115,-7.1151,-7.1254,-7.1271,-7.1341,-7.1366,-7.1398,-7.1422,-7.1504,-7.1551,-7.1558,-7.1581,-7.1635,-7.1684,-7.1686,-7.1707,-7.1739,-7.1735,-7.1593,-7.1574,-7.1555,-7.1534,-7.1743,-7.1744,-7.1883,-7.1884,-7.1885]}]]